Time,TemperatureF,DewpointF,PressureIn,WindDirection,WindDirectionDegrees,WindSpeedMPH,WindSpeedGustMPH,Humidity,HourlyPrecipIn,Conditions,Clouds,dailyrainin,SoftwareType,DateUTC
2016-02-14 00:11:00,50.9,46.0,30.27,ENE,69,3.0,4.0,82,0.00,,,0.01,weatherlink.com 1.10,2016-02-14 05:11:00,
2016-02-14 00:26:00,50.7,46.0,30.27,ENE,62,0.0,4.0,83,0.00,,,0.01,weatherlink.com 1.10,2016-02-14 05:26:00,
2016-02-14 00:41:00,50.2,46.0,30.27,ENE,62,0.0,3.0,84,0.00,,,0.01,weatherlink.com 1.10,2016-02-14 05:41:00,
2016-02-14 00:56:00,49.7,45.0,30.26,NE,44,0.0,3.0,85,0.00,,,0.01,weatherlink.com 1.10,2016-02-14 05:56:00,
2016-02-14 01:11:00,49.5,46.0,30.25,NE,44,0.0,3.0,86,0.00,,,0.01,weatherlink.com 1.10,2016-02-14 06:11:00,
2016-02-14 01:26:00,49.4,45.0,30.25,NE,46,1.0,3.0,86,0.00,,,0.01,weatherlink.com 1.10,2016-02-14 06:26:00,
2016-02-14 01:41:00,49.4,45.0,30.25,NE,52,1.0,5.0,86,0.00,,,0.01,weatherlink.com 1.10,2016-02-14 06:41:00,
2016-02-14 01:56:00,49.4,45.0,30.25,NE,55,2.0,5.0,85,0.00,,,0.01,weatherlink.com 1.10,2016-02-14 06:56:00,
2016-02-14 02:11:00,49.0,45.0,30.25,NE,53,1.0,3.0,86,0.00,,,0.01,weatherlink.com 1.10,2016-02-14 07:11:00,
2016-02-14 02:26:00,48.9,45.0,30.24,NE,51,3.0,5.0,85,0.00,,,0.00,weatherlink.com 1.10,2016-02-14 07:26:00,
2016-02-14 02:41:00,48.6,44.0,30.23,ENE,61,0.0,4.0,85,0.00,,,0.00,weatherlink.com 1.10,2016-02-14 07:41:00,
2016-02-14 02:56:00,48.3,44.0,30.23,ENE,60,2.0,5.0,86,0.00,,,0.00,weatherlink.com 1.10,2016-02-14 07:56:00,
2016-02-14 03:11:00,48.2,44.0,30.22,NE,35,1.0,6.0,86,0.00,,,0.00,weatherlink.com 1.10,2016-02-14 08:11:00,
2016-02-14 03:26:00,47.8,44.0,30.22,NE,54,4.0,5.0,87,0.00,,,0.00,weatherlink.com 1.10,2016-02-14 08:26:00,
2016-02-14 03:41:00,47.7,44.0,30.22,NNW,340,0.0,4.0,87,0.00,,,0.00,weatherlink.com 1.10,2016-02-14 08:41:00,
2016-02-14 03:57:00,47.4,44.0,30.22,NE,54,2.0,3.0,87,0.00,,,0.00,weatherlink.com 1.10,2016-02-14 08:57:00,
2016-02-14 04:12:00,47.3,44.0,30.23,NE,37,1.0,3.0,87,0.00,,,0.00,weatherlink.com 1.10,2016-02-14 09:12:00,
2016-02-14 04:27:00,47.2,44.0,30.23,NNE,31,0.0,4.0,87,0.00,,,0.00,weatherlink.com 1.10,2016-02-14 09:27:00,
2016-02-14 04:42:00,46.9,43.0,30.22,NE,38,0.0,3.0,87,0.00,,,0.00,weatherlink.com 1.10,2016-02-14 09:42:00,
2016-02-14 04:57:00,46.8,43.0,30.22,ENE,61,3.0,5.0,87,0.00,,,0.00,weatherlink.com 1.10,2016-02-14 09:57:00,
2016-02-14 05:12:00,46.8,43.0,30.22,ENE,61,1.0,5.0,87,0.00,,,0.00,weatherlink.com 1.10,2016-02-14 10:12:00,
2016-02-14 05:27:00,46.5,43.0,30.22,ENE,59,1.0,4.0,87,0.00,,,0.00,weatherlink.com 1.10,2016-02-14 10:27:00,
2016-02-14 05:42:00,46.4,43.0,30.22,ENE,57,1.0,5.0,87,0.00,,,0.00,weatherlink.com 1.10,2016-02-14 10:42:00,
2016-02-14 05:57:00,46.5,43.0,30.22,NE,34,1.0,6.0,86,0.00,,,0.00,weatherlink.com 1.10,2016-02-14 10:57:00,
2016-02-14 06:12:00,46.3,42.0,30.22,NE,55,2.0,6.0,86,0.00,,,0.00,weatherlink.com 1.10,2016-02-14 11:12:00,
2016-02-14 06:27:00,46.1,42.0,30.23,ENE,59,2.0,5.0,86,0.00,,,0.00,weatherlink.com 1.10,2016-02-14 11:27:00,
2016-02-14 06:57:00,45.9,42.0,30.24,NE,49,1.0,7.0,86,0.00,,,0.00,weatherlink.com 1.10,2016-02-14 11:57:00,
2016-02-14 07:12:00,45.7,42.0,30.24,ENE,67,1.0,4.0,86,0.00,,,0.00,weatherlink.com 1.10,2016-02-14 12:12:00,
2016-02-14 07:27:00,45.6,42.0,30.25,NE,56,0.0,5.0,86,0.00,,,0.00,weatherlink.com 1.10,2016-02-14 12:27:00,
2016-02-14 07:42:00,45.8,42.0,30.25,ENE,71,2.0,6.0,86,0.00,,,0.00,weatherlink.com 1.10,2016-02-14 12:42:00,
2016-02-14 07:57:00,46.8,43.0,30.25,NE,49,1.0,4.0,85,0.00,,,0.00,weatherlink.com 1.10,2016-02-14 12:57:00,
2016-02-14 08:12:00,48.7,43.0,30.25,ENE,65,2.0,6.0,82,0.00,,,0.00,weatherlink.com 1.10,2016-02-14 13:12:00,
2016-02-14 08:27:00,50.4,44.0,30.25,NE,48,1.0,8.0,78,0.00,,,0.00,weatherlink.com 1.10,2016-02-14 13:27:00,
2016-02-14 08:42:00,52.3,45.0,30.26,NE,39,7.0,8.0,75,0.00,,,0.00,weatherlink.com 1.10,2016-02-14 13:42:00,
2016-02-14 08:57:00,53.9,46.0,30.26,ENE,71,0.0,8.0,74,0.00,,,0.00,weatherlink.com 1.10,2016-02-14 13:57:00,
2016-02-14 09:12:00,55.4,46.0,30.27,NE,50,4.0,9.0,71,0.00,,,0.00,weatherlink.com 1.10,2016-02-14 14:12:00,
2016-02-14 09:27:00,56.7,47.0,30.28,North,9,5.0,7.0,71,0.00,,,0.00,weatherlink.com 1.10,2016-02-14 14:27:00,
2016-02-14 09:42:00,58.2,48.0,30.28,NNE,27,9.0,11.0,70,0.00,,,0.00,weatherlink.com 1.10,2016-02-14 14:42:00,
2016-02-14 09:57:00,59.3,49.0,30.28,East,92,3.0,9.0,68,0.00,,,0.00,weatherlink.com 1.10,2016-02-14 14:57:00,
2016-02-14 10:12:00,60.7,50.0,30.28,East,92,5.0,9.0,67,0.00,,,0.00,weatherlink.com 1.10,2016-02-14 15:12:00,
2016-02-14 10:27:00,61.4,50.0,30.27,NE,51,3.0,11.0,66,0.00,,,0.00,weatherlink.com 1.10,2016-02-14 15:27:00,
2016-02-14 10:43:00,62.6,51.0,30.27,NNE,27,3.0,12.0,65,0.00,,,0.00,weatherlink.com 1.10,2016-02-14 15:43:00,
2016-02-14 10:58:00,63.9,51.0,30.26,East,92,2.0,11.0,64,0.00,,,0.00,weatherlink.com 1.10,2016-02-14 15:58:00,
2016-02-14 11:28:00,66.1,53.0,30.26,North,351,5.0,9.0,62,0.00,,,0.00,weatherlink.com 1.10,2016-02-14 16:28:00,
2016-02-14 11:43:00,66.6,53.0,30.25,ESE,119,3.0,9.0,62,0.00,,,0.00,weatherlink.com 1.10,2016-02-14 16:43:00,
2016-02-14 12:13:00,68.6,53.0,30.24,NE,49,0.0,10.0,57,0.00,,,0.00,weatherlink.com 1.10,2016-02-14 17:13:00,
2016-02-14 12:28:00,68.9,53.0,30.23,SSE,147,0.0,10.0,58,0.00,,,0.00,weatherlink.com 1.10,2016-02-14 17:28:00,
2016-02-14 12:43:00,69.4,52.0,30.22,NE,53,3.0,9.0,55,0.00,,,0.00,weatherlink.com 1.10,2016-02-14 17:43:00,
2016-02-14 12:58:00,69.7,52.0,30.22,ESE,111,8.0,9.0,54,0.00,,,0.00,weatherlink.com 1.10,2016-02-14 17:58:00,
2016-02-14 13:13:00,70.2,52.0,30.21,East,97,3.0,12.0,52,0.00,,,0.00,weatherlink.com 1.10,2016-02-14 18:13:00,
2016-02-14 13:28:00,70.9,53.0,30.20,SE,140,2.0,10.0,54,0.00,,,0.00,weatherlink.com 1.10,2016-02-14 18:28:00,
2016-02-14 13:43:00,70.9,51.0,30.19,East,100,2.0,15.0,50,0.00,,,0.00,weatherlink.com 1.10,2016-02-14 18:43:00,
2016-02-14 13:58:00,71.4,53.0,30.18,SSE,155,1.0,10.0,53,0.00,,,0.00,weatherlink.com 1.10,2016-02-14 18:58:00,
2016-02-14 14:13:00,71.4,52.0,30.18,NE,55,7.0,10.0,50,0.00,,,0.00,weatherlink.com 1.10,2016-02-14 19:13:00,
2016-02-14 14:28:00,72.0,53.0,30.17,East,98,5.0,11.0,52,0.00,,,0.00,weatherlink.com 1.10,2016-02-14 19:28:00,
2016-02-14 14:43:00,72.4,54.0,30.17,ESE,109,1.0,8.0,53,0.00,,,0.00,weatherlink.com 1.10,2016-02-14 19:43:00,
2016-02-14 14:58:00,72.6,54.0,30.16,NE,43,4.0,7.0,52,0.00,,,0.00,weatherlink.com 1.10,2016-02-14 19:58:00,
2016-02-14 15:13:00,72.6,54.0,30.16,SE,136,3.0,10.0,52,0.00,,,0.00,weatherlink.com 1.10,2016-02-14 20:13:00,